Weather History for Selawik, AK

Change the Weather History Date:

Tuesday, April 23, 2013

  Actual Average Record
Temperature  
Mean Temperature 24 °F -  
Max Temperature 28 °F 25 °F 42 °F (2008)
Min Temperature 19 °F 11 °F -5 °F (1997)
Degree Days  
Heating Degree Days 42    
Moisture  
Dew Point 20 °F    
Average Humidity 81    
Maximum Humidity 86    
Minimum Humidity 74    
Precipitation  
Precipitation 0.00 in - - ()
Sea Level Pressure  
Sea Level Pressure 30.36 in    
Wind  
Wind Speed 4 mph (WSW)    
Max Wind Speed 17 mph    
Max Gust Speed 22 mph    
Visibility 9 miles    
Events      
Averages and records for this station are not official NWS values.
T = Trace of Precipitation, MM = Missing Value Source: NWS Daily Summary

Daily Weather History Graph

Daily Weather History Graph

Search for Another Location

Airport:

Trip Planner

Search our weather history database for the weather conditions in past years. The results will help you decide how hot, cold, wet, or windy it might be!

Date:

Astronomy

Apr. 23, 2013 Rise Set
Actual Time 6:22 AM AKDT 10:56 PM AKDT
Civil Twilight 5:09 AM AKDT 12:11 AM AKDT
Nautical Twilight 3:10 AM AKDT 2:05 AM AKDT
Astronomical Twilight Sun does not rise Sun does not rise
Moon 8:24 PM AKDT (4/23) 5:54 AM AKDT (4/23)
Length of Visible Light 19h 01m
Length of Day
16h 34m
Waxing Gibbous, 95% of the Moon is Illuminated
Apr 23
Waxing Gibbous
Apr 25
Full
May 2
Last Quarter
May 9
New
May 17
First Quarter

Hourly Weather History & Observations

Time (AKDT) Temp. Windchill Dew Point Humidity Pressure Visibility Wind Dir Wind Speed Gust Speed Precip Events Conditions
12:16 AM 21.2 °F - 15.8 °F 80% 30.40 in 10.0 mi Calm Calm - N/A   Overcast
12:36 AM 21.2 °F 16.4 °F 15.8 °F 80% 30.39 in 10.0 mi SW 3.5 mph - N/A   Overcast
12:56 AM 21.2 °F 13.6 °F 14.0 °F 74% 30.39 in 10.0 mi WNW 5.8 mph - N/A   Overcast
1:16 AM 21.2 °F 16.4 °F 14.0 °F 74% 30.39 in 10.0 mi West 3.5 mph - N/A   Overcast
1:36 AM 21.2 °F 13.6 °F 15.8 °F 80% 30.38 in 10.0 mi WSW 5.8 mph - N/A   Overcast
2:16 AM 21.2 °F 16.4 °F 15.8 °F 80% 30.39 in 10.0 mi SSW 3.5 mph - N/A   Overcast
2:36 AM 21.2 °F - 15.8 °F 80% 30.39 in 10.0 mi Calm Calm - N/A   Overcast
2:56 AM 21.2 °F - 15.8 °F 80% 30.38 in 10.0 mi Calm Calm - N/A   Overcast
3:16 AM 19.4 °F - 15.8 °F 86% 30.38 in 10.0 mi Calm Calm - N/A   Overcast
3:36 AM 21.2 °F - 17.6 °F 86% 30.38 in 10.0 mi Calm Calm - N/A   Overcast
3:56 AM 21.2 °F - 17.6 °F 86% 30.39 in 10.0 mi Calm Calm - N/A   Overcast
4:16 AM 21.2 °F - 15.8 °F 80% 30.39 in 10.0 mi Calm Calm - N/A   Overcast
4:36 AM 21.2 °F 14.9 °F 17.6 °F 86% 30.39 in 10.0 mi WSW 4.6 mph - N/A   Overcast
4:56 AM 23.0 °F 18.4 °F 17.6 °F 80% 30.38 in 10.0 mi SW 3.5 mph - N/A   Overcast
5:16 AM 23.0 °F 15.8 °F 17.6 °F 80% 30.39 in 10.0 mi WSW 5.8 mph - N/A   Overcast
5:36 AM 23.0 °F 15.8 °F 17.6 °F 80% 30.39 in 10.0 mi SW 5.8 mph - N/A   Overcast
5:56 AM 23.0 °F 18.4 °F 17.6 °F 80% 30.39 in 10.0 mi SW 3.5 mph - N/A   Overcast
6:16 AM 24.8 °F 16.1 °F 19.4 °F 80% 30.38 in 10.0 mi SW 8.1 mph - N/A   Overcast
6:36 AM 24.8 °F 16.1 °F 19.4 °F 80% 30.39 in 10.0 mi SW 8.1 mph - N/A   Overcast
6:56 AM 24.8 °F 15.3 °F 19.4 °F 80% 30.39 in 10.0 mi WSW 9.2 mph - N/A   Overcast
7:16 AM 24.8 °F 16.1 °F 19.4 °F 80% 30.39 in 10.0 mi WSW 8.1 mph - N/A   Overcast
7:36 AM 24.8 °F 16.1 °F 19.4 °F 80% 30.39 in 10.0 mi WSW 8.1 mph - N/A   Overcast
7:56 AM 24.8 °F 16.1 °F 19.4 °F 80% 30.38 in 10.0 mi SW 8.1 mph - N/A   Overcast
8:16 AM 24.8 °F 14.6 °F 19.4 °F 80% 30.37 in 10.0 mi SW 10.4 mph - N/A   Overcast
8:36 AM 26.6 °F 18.2 °F 19.4 °F 74% 30.38 in 10.0 mi WSW 8.1 mph - N/A   Overcast
8:56 AM 26.6 °F 21.2 °F 19.4 °F 74% 30.38 in 10.0 mi WNW 4.6 mph - N/A   Overcast
9:16 AM 24.8 °F - 17.6 °F 74% 30.38 in 10.0 mi Calm Calm - N/A   Overcast
9:36 AM 24.8 °F 17.9 °F 21.2 °F 86% 30.38 in 10.0 mi ENE 5.8 mph - N/A   Overcast
9:56 AM 24.8 °F 16.1 °F 19.4 °F 80% 30.38 in 10.0 mi East 8.1 mph - N/A   Overcast
10:16 AM 24.8 °F 19.1 °F 19.4 °F 80% 30.38 in 10.0 mi East 4.6 mph - N/A   Overcast
10:36 AM 24.8 °F - 19.4 °F 80% 30.39 in 8.0 mi Calm Calm - N/A   Overcast
10:56 AM 24.8 °F - 21.2 °F 86% 30.38 in 9.0 mi Calm Calm - N/A   Overcast
11:16 AM 24.8 °F 20.5 °F 21.2 °F 86% 30.39 in 10.0 mi NE 3.5 mph - N/A   Overcast
11:36 AM 24.8 °F 19.1 °F 19.4 °F 80% 30.40 in 10.0 mi East 4.6 mph - N/A   Overcast
11:56 AM 26.6 °F - 21.2 °F 80% 30.40 in 10.0 mi Calm Calm - N/A   Overcast
12:16 PM 26.6 °F - 19.4 °F 74% 30.39 in 10.0 mi Calm Calm - N/A   Overcast
12:36 PM 26.6 °F - 19.4 °F 74% 30.39 in 10.0 mi Calm Calm - N/A   Overcast
12:56 PM 24.8 °F 20.5 °F 21.2 °F 86% 30.40 in 10.0 mi ENE 3.5 mph - N/A   Overcast
1:16 PM 24.8 °F 17.9 °F 21.2 °F 86% 30.39 in 10.0 mi NNE 5.8 mph - N/A   Overcast
1:36 PM 24.8 °F 19.1 °F 21.2 °F 86% 30.39 in 10.0 mi NE 4.6 mph - N/A   Mostly Cloudy
1:56 PM 24.8 °F 20.5 °F 19.4 °F 80% 30.39 in 10.0 mi NE 3.5 mph - N/A   Overcast
2:16 PM 26.6 °F 22.6 °F 21.2 °F 80% 30.39 in 10.0 mi NE 3.5 mph - N/A   Overcast
2:36 PM 26.6 °F - 19.4 °F 74% 30.39 in 10.0 mi Calm Calm - N/A   Overcast
2:56 PM 26.6 °F 20.0 °F 19.4 °F 74% 30.39 in 10.0 mi NE 5.8 mph - N/A   Overcast
3:16 PM 26.6 °F 21.2 °F 21.2 °F 80% 30.38 in 10.0 mi NE 4.6 mph - N/A   Overcast
3:36 PM 26.6 °F - 19.4 °F 74% 30.38 in 10.0 mi Calm Calm - N/A   Overcast
3:56 PM 26.6 °F 20.0 °F 21.2 °F 80% 30.37 in 10.0 mi East 5.8 mph - N/A   Overcast
4:16 PM 26.6 °F 20.0 °F 21.2 °F 80% 30.36 in 10.0 mi East 5.8 mph - N/A   Overcast
4:36 PM 26.6 °F 20.0 °F 21.2 °F 80% 30.36 in 10.0 mi East 5.8 mph - N/A   Overcast
4:56 PM 26.6 °F 20.0 °F 21.2 °F 80% 30.36 in 10.0 mi ENE 5.8 mph - N/A   Overcast
5:16 PM 26.6 °F 19.1 °F 21.2 °F 80% 30.36 in 10.0 mi NE 6.9 mph - N/A   Overcast
5:36 PM 26.6 °F 19.1 °F 21.2 °F 80% 30.35 in 10.0 mi ENE 6.9 mph - N/A   Overcast
5:56 PM 26.6 °F 20.0 °F 21.2 °F 80% 30.36 in 10.0 mi NNE 5.8 mph - N/A   Overcast
6:16 PM 26.6 °F 20.0 °F 21.2 °F 80% 30.34 in 10.0 mi NNE 5.8 mph - N/A   Overcast
6:36 PM 26.6 °F 21.2 °F 21.2 °F 80% 30.34 in 10.0 mi NNE 4.6 mph - N/A   Overcast
6:56 PM 26.6 °F 22.6 °F 21.2 °F 80% 30.34 in 10.0 mi NNE 3.5 mph - N/A   Overcast
7:16 PM 26.6 °F - 21.2 °F 80% 30.33 in 10.0 mi Calm Calm - N/A   Overcast
7:36 PM 26.6 °F - 21.2 °F 80% 30.33 in 10.0 mi Calm Calm - N/A   Overcast
7:56 PM 28.4 °F - 23.0 °F 80% 30.32 in 10.0 mi Calm Calm - N/A   Overcast
8:16 PM 28.4 °F 19.1 °F 21.2 °F 74% 30.31 in 10.0 mi SW 10.4 mph - N/A   Overcast
8:36 PM 28.4 °F 18.5 °F 21.2 °F 74% 30.31 in 10.0 mi SW 11.5 mph - N/A   Overcast
8:56 PM 28.4 °F 17.0 °F 23.0 °F 80% 30.30 in 3.0 mi WSW 15.0 mph - N/A   Overcast
9:16 PM 28.4 °F 17.5 °F 24.8 °F 86% 30.29 in 1.0 mi SW 13.8 mph - N/A   Overcast
9:36 PM 28.4 °F 18.0 °F 24.8 °F 86% 30.28 in 1.0 mi SW 12.7 mph - N/A   Overcast
9:56 PM 28.4 °F 17.0 °F 24.8 °F 86% 30.28 in 0.8 mi SW 15.0 mph - N/A   Overcast
10:16 PM 28.4 °F 17.5 °F 24.8 °F 86% 30.28 in 1.2 mi SW 13.8 mph - N/A   Overcast
10:36 PM 28.4 °F 17.5 °F 24.8 °F 86% 30.27 in 1.2 mi SW 13.8 mph - N/A   Mostly Cloudy
10:56 PM 28.4 °F 16.6 °F 24.8 °F 86% 30.27 in 1.2 mi SW 16.1 mph 21.9 mph N/A   Scattered Clouds
11:16 PM 28.4 °F 16.6 °F 24.8 °F 86% 30.26 in 1.0 mi SW 16.1 mph - N/A   Clear
11:36 PM 28.4 °F 16.2 °F 24.8 °F 86% 30.26 in 1.0 mi SW 17.3 mph 21.9 mph N/A   Clear
11:56 PM 28.4 °F 17.0 °F 24.8 °F 86% 30.26 in 1.2 mi WSW 15.0 mph - N/A   Scattered Clouds